{"data":{"norad_id":55782,"epoch":"2026-05-25T00:13:24.189600Z","epoch_age_seconds":73975,"freshness":"FRESH","line1":"1 55782U 23028AT  26145.00930775 -.00000071  00000+0  18128-5 0  9994","line2":"2 55782  70.0002  12.2106 0002656 269.4692  90.6163 14.98330686178455","mean_motion":14.98330686,"eccentricity":0.0002656,"inclination_deg":70.0002,"raan_deg":12.2106,"arg_perigee_deg":269.4692,"mean_anomaly_deg":90.6163,"bstar":1.8128e-6,"rev_number":17845,"period_min":96.10695512379,"perigee_km":570.20779887842,"apogee_km":573.89974021521,"semimajor_km":6950.1907695468,"source":"CELESTRAK","updated_at":"2026-05-25T13:38:17.886182Z"}}